{"data":{"norad_id":49191,"epoch":"2026-05-25T02:17:07.173888Z","epoch_age_seconds":80498,"freshness":"FRESH","line1":"1 49191U 21083F   26145.09522192  .00000070  00000+0  14039-3 0  9992","line2":"2 49191  87.9173 279.0391 0001613  97.8356 262.2960 13.20770313233788","mean_motion":13.20770313,"eccentricity":0.0001613,"inclination_deg":87.9173,"raan_deg":279.0391,"arg_perigee_deg":97.8356,"mean_anomaly_deg":262.296,"bstar":0.00014039,"rev_number":23378,"period_min":109.02728398923,"perigee_km":1180.5596818753,"apogee_km":1182.998510808,"semimajor_km":7559.9160963416,"source":"CELESTRAK","updated_at":"2026-05-25T13:38:22.489751Z"}}